| time (UTC) | temp F | wind direction | speed MPH | gust MPH | rain 1hr in | rain 24hr in | rain mn in | humidity % | barometer mb |
| 20260507201032 | 63 | 176 | 6.0 | 8.0 | 0.00 | 0.00 | 0.00 | 53 | 1019.4 |
| 20260507200023 | 63 | 169 | 5.0 | 10.0 | 0.00 | 0.00 | 0.00 | 52 | 1019.5 |
| 20260507195018 | 63 | 184 | 5.0 | 9.0 | 0.00 | 0.00 | 0.00 | 51 | 1019.7 |
| 20260507194030 | 63 | 156 | 4.0 | 8.0 | 0.00 | 0.00 | 0.00 | 53 | 1019.6 |
| 20260507193021 | 63 | 203 | 6.0 | 9.0 | 0.00 | 0.00 | 0.00 | 53 | 1019.7 |
| 20260507192034 | 63 | 198 | 6.0 | 9.0 | 0.00 | 0.00 | 0.00 | 54 | 1019.5 |
| 20260507191031 | 64 | 185 | 4.0 | 9.0 | 0.00 | 0.00 | 0.00 | 53 | 1019.7 |
| 20260507190024 | 64 | 192 | 6.0 | 8.0 | 0.00 | 0.00 | 0.00 | 52 | 1019.4 |
| 20260507185018 | 64 | 171 | 5.0 | 7.0 | 0.00 | 0.00 | 0.00 | 50 | 1019.3 |
| 20260507184028 | 64 | 175 | 6.0 | 8.0 | 0.00 | 0.00 | 0.00 | 51 | 1019.2 |
| 20260507183023 | 64 | 169 | 7.0 | 8.0 | 0.00 | 0.00 | 0.00 | 53 | 1019.1 |
| 20260507182036 | 65 | 159 | 5.0 | 10.0 | 0.00 | 0.00 | 0.00 | 47 | 1019.1 |
| 20260507181029 | 65 | 154 | 5.0 | 8.0 | 0.00 | 0.00 | 0.00 | 47 | 1019.2 |
| 20260507180023 | 65 | 183 | 3.0 | 5.0 | 0.00 | 0.00 | 0.00 | 50 | 1019.1 |
| 20260507175036 | 66 | 180 | 3.0 | 5.0 | 0.00 | 0.00 | 0.00 | 47 | 1019.2 |
| 20260507174029 | 66 | 176 | 3.0 | 7.0 | 0.00 | 0.00 | 0.00 | 50 | 1019.2 |
| 20260507173043 | 66 | 165 | 4.0 | 6.0 | 0.00 | 0.00 | 0.00 | 49 | 1018.9 |
| 20260507172035 | 66 | 157 | 4.0 | 6.0 | 0.00 | 0.00 | 0.00 | 56 | 1018.8 |
| 20260507171033 | 67 | 351 | 2.0 | 3.0 | 0.00 | 0.00 | 0.00 | 60 | 1018.9 |
| 20260507170026 | 68 | 351 | 1.0 | 3.0 | 0.00 | 0.00 | 0.00 | 57 | 1018.9 |
| 20260507165017 | 68 | 351 | 1.0 | 2.0 | 0.00 | 0.00 | 0.00 | 56 | 1018.9 |
| 20260507164028 | 68 | 351 | 0.0 | 2.0 | 0.00 | 0.00 | 0.00 | 58 | 1018.9 |
| 20260507163024 | 68 | 351 | 0.0 | 1.0 | 0.00 | 0.00 | 0.00 | 58 | 1018.9 |
| 20260507162018 | 68 | 351 | 0.0 | 1.0 | 0.00 | 0.00 | 0.00 | 58 | 1018.9 |
| 20260507161051 | 69 | 351 | 1.0 | 2.0 | 0.00 | 0.00 | 0.00 | 57 | 1019.1 |
| 20260507160023 | 69 | 351 | 2.0 | 3.0 | 0.00 | 0.00 | 0.00 | 57 | 1018.8 |
| 20260507155039 | 69 | 351 | 2.0 | 3.0 | 0.00 | 0.00 | 0.00 | 54 | 1018.6 |
| 20260507154031 | 70 | 351 | 2.0 | 4.0 | 0.00 | 0.00 | 0.00 | 50 | 1018.4 |
| 20260507153023 | 70 | 351 | 2.0 | 4.0 | 0.00 | 0.00 | 0.00 | 47 | 1018.4 |
| 20260507152034 | 71 | 340 | 2.0 | 6.0 | 0.00 | 0.00 | 0.00 | 45 | 1018.4 |
| 20260507151030 | 71 | 331 | 3.0 | 5.0 | 0.00 | 0.00 | 0.00 | 44 | 1018.5 |
| 20260507150023 | 71 | 333 | 2.0 | 5.0 | 0.00 | 0.00 | 0.00 | 46 | 1018.4 |
| 20260507145033 | 70 | 355 | 3.0 | 5.0 | 0.00 | 0.00 | 0.00 | 43 | 1018.4 |
| 20260507144027 | 71 | 338 | 4.0 | 8.0 | 0.00 | 0.00 | 0.00 | 45 | 1018.7 |
| 20260507143024 | 71 | 5 | 5.0 | 8.0 | 0.00 | 0.00 | 0.00 | 43 | 1018.6 |
| 20260507142017 | 72 | 348 | 5.0 | 10.0 | 0.00 | 0.00 | 0.00 | 40 | 1018.7 |
| 20260507141030 | 72 | 332 | 6.0 | 11.0 | 0.00 | 0.00 | 0.00 | 42 | 1018.8 |
| 20260507140022 | 72 | 331 | 7.0 | 12.0 | 0.00 | 0.00 | 0.00 | 42 | 1018.7 |
| 20260507135020 | 72 | 5 | 5.0 | 11.0 | 0.00 | 0.00 | 0.00 | 43 | 1018.7 |
| 20260507134033 | 72 | 348 | 7.0 | 11.0 | 0.00 | 0.00 | 0.00 | 45 | 1018.6 |
| 20260507133026 | 72 | 344 | 10.0 | 15.0 | 0.00 | 0.00 | 0.00 | 47 | 1018.7 |
| 20260507132039 | 74 | 27 | 11.0 | 15.0 | 0.00 | 0.00 | 0.00 | 46 | 1018.4 |
| 20260507131035 | 76 | 319 | 5.0 | 11.0 | 0.00 | 0.00 | 0.00 | 40 | 1018.6 |
| 20260507130027 | 76 | 250 | 3.0 | 12.0 | 0.00 | 0.00 | 0.00 | 33 | 1018.5 |
| 20260507125040 | 76 | 148 | 6.0 | 20.0 | 0.00 | 0.00 | 0.00 | 30 | 1018.6 |
| 20260507124052 | 76 | 123 | 12.0 | 20.0 | 0.00 | 0.00 | 0.00 | 31 | 1018.7 |
| 20260507123026 | 77 | 150 | 8.0 | 17.0 | 0.00 | 0.00 | 0.00 | 30 | 1018.7 |
| 20260507122019 | 76 | 152 | 13.0 | 19.0 | 0.00 | 0.00 | 0.00 | 30 | 1018.9 |
| 20260507121032 | 77 | 148 | 9.0 | 18.0 | 0.00 | 0.00 | 0.00 | 30 | 1018.9 |
| 20260507120025 | 77 | 213 | 7.0 | 15.0 | 0.00 | 0.00 | 0.00 | 29 | 1019.1 |
| 20260507115042 | 77 | 157 | 10.0 | 17.0 | 0.00 | 0.00 | 0.00 | 30 | 1019.2 |
| 20260507114035 | 76 | 81 | 2.0 | 10.0 | 0.00 | 0.00 | 0.00 | 41 | 1019.1 |
| 20260507113027 | 76 | 321 | 4.0 | 9.0 | 0.00 | 0.00 | 0.00 | 41 | 1019.0 |
| 20260507112020 | 75 | 67 | 4.0 | 11.0 | 0.00 | 0.00 | 0.00 | 44 | 1019.0 |
| 20260507111017 | 75 | 348 | 5.0 | 10.0 | 0.00 | 0.00 | 0.00 | 43 | 1018.9 |
| 20260507110028 | 73 | 17 | 7.0 | 11.0 | 0.00 | 0.00 | 0.00 | 45 | 1019.0 |
| 20260507105020 | 74 | 5 | 3.0 | 12.0 | 0.00 | 0.00 | 0.00 | 46 | 1019.0 |
| 20260507104054 | 73 | 360 | 8.0 | 12.0 | 0.00 | 0.00 | 0.00 | 46 | 1019.0 |
| 20260507103030 | 74 | 349 | 5.0 | 10.0 | 0.00 | 0.00 | 0.00 | 46 | 1018.9 |
| 20260507102042 | 73 | 32 | 7.0 | 11.0 | 0.00 | 0.00 | 0.00 | 46 | 1018.9 |
| 20260507101036 | 74 | 351 | 8.0 | 11.0 | 0.00 | 0.00 | 0.00 | 45 | 1019.0 |
| 20260507100030 | 74 | 348 | 6.0 | 10.0 | 0.00 | 0.00 | 0.00 | 45 | 1019.1 |
| 20260507095048 | 74 | 360 | 6.0 | 10.0 | 0.00 | 0.00 | 0.00 | 44 | 1019.3 |
| 20260507094018 | 75 | 5 | 6.0 | 9.0 | 0.00 | 0.00 | 0.00 | 44 | 1019.2 |
| 20260507093030 | 75 | 313 | 5.0 | 9.0 | 0.00 | 0.00 | 0.00 | 43 | 1019.2 |
| 20260507092022 | 74 | 360 | 5.0 | 8.0 | 0.00 | 0.00 | 0.00 | 43 | 1019.3 |
| 20260507091019 | 74 | 29 | 3.0 | 9.0 | 0.00 | 0.00 | 0.00 | 41 | 1019.4 |
| 20260507090031 | 73 | 37 | 5.0 | 8.0 | 0.00 | 0.00 | 0.00 | 41 | 1019.6 |
| 20260507085044 | 74 | 13 | 4.0 | 9.0 | 0.00 | 0.00 | 0.00 | 39 | 1019.5 |
| 20260507084036 | 73 | 323 | 4.0 | 10.0 | 0.00 | 0.00 | 0.00 | 42 | 1019.4 |
| 20260507083048 | 73 | 332 | 6.0 | 10.0 | 0.00 | 0.00 | 0.00 | 40 | 1019.4 |
| 20260507082024 | 73 | 349 | 5.0 | 10.0 | 0.00 | 0.00 | 0.00 | 40 | 1019.3 |
| 20260507081017 | 73 | 13 | 4.0 | 10.0 | 0.00 | 0.00 | 0.00 | 40 | 1019.2 |
| 20260507080029 | 72 | 30 | 4.0 | 10.0 | 0.00 | 0.00 | 0.00 | 41 | 1019.2 |
| 20260507075019 | 72 | 346 | 5.0 | 9.0 | 0.00 | 0.00 | 0.00 | 40 | 1019.3 |
| 20260507074016 | 72 | 44 | 5.0 | 10.0 | 0.00 | 0.00 | 0.00 | 42 | 1019.2 |
| 20260507073031 | 73 | 319 | 2.0 | 6.0 | 0.00 | 0.00 | 0.00 | 42 | 1019.1 |
| 20260507072033 | 72 | 32 | 3.0 | 7.0 | 0.00 | 0.00 | 0.00 | 43 | 1019.1 |
| 20260507071027 | 72 | 55 | 3.0 | 5.0 | 0.00 | 0.00 | 0.00 | 43 | 1019.0 |
| 20260507070023 | 72 | 355 | 1.0 | 3.0 | 0.00 | 0.00 | 0.00 | 43 | 1018.9 |
| 20260507065034 | 71 | 82 | 0.0 | 3.0 | 0.00 | 0.00 | 0.00 | 43 | 1018.9 |
| 20260507064027 | 71 | 55 | 1.0 | 3.0 | 0.00 | 0.00 | 0.00 | 42 | 1018.9 |
| 20260507063038 | 70 | 107 | 2.0 | 4.0 | 0.00 | 0.00 | 0.00 | 37 | 1018.8 |
| 20260507062033 | 70 | 62 | 2.0 | 4.0 | 0.00 | 0.00 | 0.00 | 44 | 1018.8 |
| 20260507061024 | 69 | 41 | 1.0 | 2.0 | 0.00 | 0.00 | 0.00 | 41 | 1018.7 |
| 20260507060018 | 69 | 108 | 1.0 | 3.0 | 0.00 | 0.00 | 0.00 | 41 | 1018.6 |
| 20260507055030 | 68 | 111 | 0.0 | 3.0 | 0.00 | 0.00 | 0.00 | 42 | 1018.5 |
| 20260507054028 | 67 | 111 | 1.0 | 3.0 | 0.00 | 0.00 | 0.00 | 43 | 1018.4 |
| 20260507053021 | 68 | 143 | 0.0 | 2.0 | 0.00 | 0.00 | 0.00 | 45 | 1018.4 |
| 20260507052035 | 67 | 143 | 0.0 | 2.0 | 0.00 | 0.00 | 0.00 | 41 | 1018.5 |
| 20260507051032 | 65 | 143 | 0.0 | 2.0 | 0.00 | 0.00 | 0.00 | 45 | 1018.4 |
| 20260507050023 | 65 | 143 | 1.0 | 3.0 | 0.00 | 0.00 | 0.00 | 49 | 1018.1 |
| 20260507045035 | 64 | 188 | 1.0 | 4.0 | 0.00 | 0.00 | 0.00 | 48 | 1018.0 |
| 20260507044027 | 63 | 211 | 4.0 | 5.0 | 0.00 | 0.00 | 0.00 | 44 | 1018.0 |
| 20260507043022 | 62 | 205 | 3.0 | 4.0 | 0.00 | 0.00 | 0.00 | 48 | 1017.9 |
| 20260507042035 | 62 | 173 | 2.0 | 4.0 | 0.00 | 0.00 | 0.00 | 49 | 1018.0 |
| 20260507041047 | 62 | 182 | 4.0 | 5.0 | 0.00 | 0.00 | 0.00 | 46 | 1018.0 |
| 20260507040019 | 62 | 208 | 2.0 | 5.0 | 0.00 | 0.00 | 0.00 | 46 | 1017.8 |
| 20260507035016 | 62 | 207 | 3.0 | 6.0 | 0.00 | 0.00 | 0.00 | 45 | 1017.8 |
| 20260507034026 | 62 | 213 | 4.0 | 6.0 | 0.00 | 0.00 | 0.00 | 45 | 1017.9 |
| 20260507033019 | 62 | 211 | 4.0 | 5.0 | 0.00 | 0.00 | 0.00 | 45 | 1017.8 |
| 20260507032030 | 62 | 201 | 4.0 | 6.0 | 0.00 | 0.00 | 0.00 | 46 | 1017.7 |
| 20260507031026 | 61 | 212 | 3.0 | 7.0 | 0.00 | 0.00 | 0.00 | 46 | 1017.6 |
| 20260507030019 | 61 | 216 | 4.0 | 6.0 | 0.00 | 0.00 | 0.00 | 46 | 1017.6 |
| 20260507025031 | 61 | 215 | 4.0 | 6.0 | 0.00 | 0.00 | 0.00 | 47 | 1017.6 |
| 20260507024024 | 61 | 203 | 4.0 | 6.0 | 0.00 | 0.00 | 0.00 | 48 | 1017.6 |
| 20260507023021 | 60 | 197 | 4.0 | 5.0 | 0.00 | 0.00 | 0.00 | 49 | 1017.5 |
| 20260507022034 | 61 | 208 | 2.0 | 3.0 | 0.00 | 0.00 | 0.00 | 50 | 1017.4 |
| 20260507021025 | 61 | 208 | 2.0 | 5.0 | 0.00 | 0.00 | 0.00 | 48 | 1017.3 |
| 20260507020038 | 62 | 187 | 3.0 | 7.0 | 0.00 | 0.00 | 0.00 | 49 | 1017.4 |
| 20260507015015 | 61 | 196 | 6.0 | 9.0 | 0.00 | 0.00 | 0.00 | 51 | 1017.3 |
| 20260507014028 | 62 | 207 | 6.0 | 7.0 | 0.00 | 0.00 | 0.00 | 49 | 1017.2 |
| 20260507013022 | 62 | 195 | 5.0 | 7.0 | 0.00 | 0.00 | 0.00 | 49 | 1017.3 |
| 20260507012035 | 62 | 200 | 5.0 | 8.0 | 0.00 | 0.00 | 0.00 | 50 | 1017.3 |
| 20260507011033 | 62 | 194 | 5.0 | 9.0 | 0.00 | 0.00 | 0.00 | 49 | 1017.4 |
| 20260507010024 | 62 | 215 | 6.0 | 8.0 | 0.00 | 0.00 | 0.00 | 48 | 1017.6 |
| 20260507005036 | 62 | 200 | 5.0 | 8.0 | 0.00 | 0.00 | 0.00 | 48 | 1017.6 |
| 20260507004030 | 62 | 191 | 3.0 | 8.0 | 0.00 | 0.00 | 0.00 | 46 | 1017.6 |
| 20260507003028 | 62 | 196 | 5.0 | 7.0 | 0.00 | 0.00 | 0.00 | 47 | 1017.7 |
| 20260507002021 | 62 | 198 | 6.0 | 9.0 | 0.00 | 0.00 | 0.00 | 47 | 1017.7 |
| 20260507001033 | 62 | 207 | 5.0 | 9.0 | 0.00 | 0.00 | 0.00 | 47 | 1017.7 |
| 20260507000030 | 62 | 186 | 5.0 | 10.0 | 0.00 | 0.00 | 0.00 | 47 | 1017.7 |
| 20260506235023 | 62 | 205 | 6.0 | 11.0 | 0.00 | 0.00 | 0.00 | 47 | 1017.7 |
| 20260506234036 | 62 | 193 | 5.0 | 9.0 | 0.00 | 0.00 | 0.00 | 47 | 1017.7 |
| 20260506233027 | 62 | 199 | 5.0 | 8.0 | 0.00 | 0.00 | 0.00 | 47 | 1017.6 |
| 20260506232022 | 62 | 203 | 4.0 | 7.0 | 0.00 | 0.00 | 0.00 | 47 | 1017.7 |
| 20260506231056 | 63 | 200 | 5.0 | 7.0 | 0.00 | 0.00 | 0.00 | 47 | 1017.9 |
| 20260506230027 | 63 | 202 | 4.0 | 6.0 | 0.00 | 0.00 | 0.00 | 47 | 1017.9 |
| 20260506225020 | 63 | 230 | 3.0 | 5.0 | 0.00 | 0.00 | 0.00 | 48 | 1017.9 |
| 20260506224031 | 63 | 211 | 3.0 | 5.0 | 0.00 | 0.00 | 0.00 | 49 | 1018.0 |
| 20260506223048 | 63 | 213 | 3.0 | 4.0 | 0.00 | 0.00 | 0.00 | 50 | 1018.0 |
| 20260506222018 | 63 | 213 | 0.0 | 3.0 | 0.00 | 0.00 | 0.00 | 50 | 1018.1 |
| 20260506221031 | 63 | 223 | 2.0 | 3.0 | 0.00 | 0.00 | 0.00 | 50 | 1018.3 |
| 20260506220045 | 63 | 206 | 2.0 | 4.0 | 0.00 | 0.00 | 0.00 | 51 | 1018.1 |
| 20260506215021 | 62 | 215 | 2.0 | 4.0 | 0.00 | 0.00 | 0.00 | 51 | 1018.1 |
| 20260506214054 | 63 | 206 | 4.0 | 6.0 | 0.00 | 0.00 | 0.00 | 51 | 1018.1 |
| 20260506213027 | 63 | 219 | 4.0 | 5.0 | 0.00 | 0.00 | 0.00 | 50 | 1018.2 |
| 20260506212020 | 63 | 204 | 3.0 | 5.0 | 0.00 | 0.00 | 0.00 | 51 | 1018.2 |
| 20260506211019 | 62 | 206 | 3.0 | 5.0 | 0.00 | 0.00 | 0.00 | 51 | 1018.4 |
| 20260506210033 | 62 | 209 | 4.0 | 6.0 | 0.00 | 0.00 | 0.00 | 52 | 1018.3 |
| 20260506205026 | 62 | 186 | 3.0 | 5.0 | 0.00 | 0.00 | 0.00 | 54 | 1018.5 |
| 20260506204043 | 62 | 208 | 3.0 | 6.0 | 0.00 | 0.00 | 0.00 | 56 | 1018.4 |
| 20260506203036 | 62 | 218 | 4.0 | 6.0 | 0.00 | 0.00 | 0.00 | 58 | 1018.5 |
| 20260506202030 | 61 | 190 | 5.0 | 7.0 | 0.00 | 0.00 | 0.00 | 60 | 1018.4 |